Location: Unspecified
(43.4354°N, 0.0000°E)
Time: 18:43:26
(UTC+00:00)

Tiros 1 despin weight - Pass Details

Date: 03 July 2019
Orbit: 594 x 642 km, 48.2° (Epoch: 20 August)

Event Time Altitude Azimuth Distance (km) Brightness Sun altitude
Rises 01:04:53 0° 292° (WNW) 2,847 ? -22.1°
Reaches altitude 10° 01:07:18 10° 284° (WNW) 1,936 ? -22.0°
Enters shadow 01:08:34 18° 275° (W) 1,492 ? -21.9°
